Flag for Germany Weather past 2 weeks in Königs Wusterhausen, Brandenburg, Germany

Now
68 °F

Sunny.


Feels Like: 68 °F
Forecast: 51 / 69 °F
Wind: 15 mph from Northeast

Location: Berlin-Schoenefeld


UV Index: 3 (Moderate)

Visibility: 10 mi


Pressure: 29.98 "Hg

Humidity: 56%

Dew point: 52 °F

Location of Königs WusterhausenLocation

Historic Weather in Königs Wusterhausen

°F

Königs Wusterhausen temperature yesterday

Maximum temperature yesterday: 52 °F (at 1:20 PM)
Minimum temperature yesterday: 41 °F (at 11:50 PM)
Average temperature yesterday: 46 °F

Past Weeks' High & Low Weather Summary

 TemperatureHumidityPressure
High68 °F (Apr 7, 3:50 PM)100% (Apr 7, 8:20 AM)30.45 "Hg (Apr 7, 8:20 AM)
Low32 °F (Apr 17, 5:20 AM)30% (Apr 16, 3:20 PM)29.68 "Hg (Apr 14, 9:20 AM)
Average49 °F74%30.01 "Hg
* Reported Apr 4 3:20 PM — Apr 19 3:50 PM, Königs Wusterhausen, Weather by CustomWeather, © 2014

Note: Actual official high and low records may vary slightly from our data, if they occured in-between our weather recording intervals... More about our weather records

Advertising

Historic Weather Conditions — Data for Previous 24 hours

 ConditionsComfort  
Time TempWeatherWind HumidityBarometerVisibility
3:50 PM
Apr 19
68 °FSunny.16 mph56%29.98 "Hg10 mi
3:20 PM68 °FSunny.15 mph56%30.01 "Hg10 mi
2:50 PM66 °FSunny.13 mph60%30.01 "Hg10 mi
2:20 PM66 °FSunny.16 mph64%30.01 "Hg10 mi
1:50 PM64 °FSunny.16 mph68%30.04 "Hg10 mi
1:20 PM64 °FSunny.15 mph64%30.04 "Hg10 mi
12:50 PM63 °FSunny.14 mph68%30.04 "Hg10 mi
12:20 PM61 °FSunny.12 mph68%30.04 "Hg10 mi
11:50 AM57 °FSunny.10 mph72%30.07 "Hg10 mi
11:20 AM55 °FSunny.10 mph72%30.07 "Hg10 mi
10:50 AM52 °FSunny.13 mph77%30.07 "Hg10 mi
10:20 AM50 °FBroken clouds.10 mph82%30.07 "HgN/A
9:50 AM46 °FSunny.10 mph87%30.07 "Hg10 mi
9:20 AM45 °FSunny.10 mph87%30.07 "Hg10 mi
8:50 AM43 °FClear.9 mph93%30.07 "Hg6 mi
8:20 AM41 °FClear.7 mph100%30.07 "Hg5 mi
7:50 AM41 °FFog.5 mph100%30.07 "HgN/A
7:20 AM39 °FFog.6 mph100%30.07 "HgN/A
6:50 AM39 °FFog.7 mph100%30.07 "HgN/A
6:20 AM37 °FFog.6 mph100%30.07 "HgN/A
5:50 AM37 °FFog.7 mph100%30.07 "HgN/A
5:20 AM39 °FFog.5 mph100%30.07 "HgN/A
4:50 AM37 °FFog.3 mph100%30.07 "HgN/A
4:20 AM36 °FFog.5 mph100%30.07 "Hg3 mi
3:50 AM37 °FFog.5 mph100%30.07 "Hg4 mi
3:20 AM37 °FFog.6 mph100%30.04 "HgN/A
2:50 AM37 °FFog.5 mph100%30.04 "HgN/A
2:20 AM37 °FFog.9 mph100%30.04 "HgN/A
1:50 AM39 °FFog.6 mph100%30.01 "HgN/A
1:20 AM39 °FFog.6 mph100%30.01 "HgN/A
12:50 AM41 °FFog.5 mph93%30.01 "HgN/A
12:20 AM41 °FFog.5 mph100%30.01 "HgN/A
11:50 PM
Apr 18
41 °FFog.5 mph93%29.98 "HgN/A
11:20 PM43 °FClear.6 mph93%29.98 "Hg10 mi
10:50 PM43 °FClear.6 mph93%29.98 "Hg10 mi
10:20 PM45 °FClear.6 mph87%29.95 "Hg10 mi
9:50 PM45 °FClear.6 mph93%29.95 "Hg10 mi
9:20 PM45 °FClear.6 mph93%29.92 "Hg10 mi
8:50 PM46 °FPartly sunny.5 mph87%29.92 "HgN/A
8:20 PM46 °FPartly sunny.3 mph87%29.89 "HgN/A
7:50 PM46 °FScattered showers. Partly sunny.6 mph87%29.89 "HgN/A
7:20 PM46 °FScattered showers. Broken clouds.6 mph87%29.89 "HgN/A
6:50 PM48 °FBroken clouds.8 mph82%29.86 "HgN/A
6:20 PM48 °FScattered clouds.12 mph82%29.86 "HgN/A
5:50 PM48 °FScattered clouds.6 mph76%29.83 "HgN/A
5:20 PM50 °FScattered clouds.7 mph71%29.83 "HgN/A
Weather by CustomWeather, © 2014

See weather overview